Tracking 19638 objects as of 21-Apr-2019
HD Live streaming from Space Station
objects crossing your sky now

LEMUR 2 JOBANPUTRA

Track LEMUR 2 JOBANPUTRA now!
10-day predictions
LEMUR 2 JOBANPUTRA is classified as:


NORAD ID: 41997
Int'l Code: 2017-008BB
Perigee: 491.8 km
Apogee: 503.7 km
Inclination: 97.4 °
Period: 94.4 minutes
Semi major axis: 6868 km
RCS: Unknown
Launch date: February 15, 2017
Source: United States (US)
Launch site: SRIHARIKOTA (SRI)
aabbcc
Your satellite tracking list
Your tracking list is empty




NASA's NSSDC Master Catalog

Two Line Element Set (TLE):
1 41997U 17008BB  19111.20121267  .00001633  00000-0  68185-4 0  9995
2 41997  97.4098 178.5714 0008649  18.6398 341.5154 15.25058064120343
Source of the keplerian elements: AFSPC